Regional Weather Roundup
Issued by NWS

Home | Current Version | Previous Version | Text Only | Print | Product List | Glossary Off
Versions: 1 2 3 4 5 6 7 8 9 10 11 12 13 14 15 16 17 18 19 20 21 22 23 24 25 26 27 28 29 30 31 32 33 34 35 36 37 38 39 40 41 42 43 44 45 46 47 48 49 50

000
ASUS43 KLSX 272159
RWRMO

WEATHER SUMMARY FOR MISSOURI
NATIONAL WEATHER SERVICE SPRINGFIELD MO
500 PM CDT THU JUL 27 2017

NOTE: "FAIR" INDICATES FEW OR NO CLOUDS BELOW 12,000 FEET WITH NO
       SIGNIFICANT WEATHER AND/OR OBSTRUCTIONS TO VISIBILITY.
       CURRENT SKY AND/OR WEATHER CONDITIONS ARE NOT AVAILABLE FOR
       CHILLICOTHE AND FARMINGTON.

MOZ001>031-035>038-043-044-053-054-272300-
...NORTHERN AND WESTERN MISSOURI...

CITY           SKY/WX    TMP DP  RH WIND       PRES   REMARKS
KANSAS CTY INT PTSUNNY   84  72  67 NE14      29.95F
LEE`S SUMMIT   PTSUNNY   83  75  77 N13       29.94F HX  90
ST JOSEPH      MOSUNNY   85  73  67 N10       29.95F HX  91
CHILLICOTHE      N/A     86  73  65 N7        29.94F HX  93
KIRKSVILLE     CLOUDY    83  71  67 NE8       29.94F

$$
MOZ066>068-077>081-088>096-101>105-272300-
...SOUTHWEST MISSOURI...

CITY           SKY/WX    TMP DP  RH WIND       PRES   REMARKS
SPRINGFIELD    CLOUDY    86  74  67 W7        29.93F HX  94
JOPLIN         MOSUNNY   92  75  57 SW8       29.91F HX 103
BRANSON        CLOUDY    82  73  74 CALM      29.95F

$$
MOZ032>034-039>042-045>050-055>058-069>072-272300-
...CENTRAL MISSOURI...

CITY           SKY/WX    TMP DP  RH WIND       PRES   REMARKS
COLUMBIA       CLOUDY    81  76  84 N3        29.91F
JEFFERSON CITY CLOUDY    83  77  82 NW7       29.90F HX  92
ROLLA          CLOUDY    79  74  84 W8        29.94S
SEDALIA        CLOUDY    84  78  82 N3        29.93F HX  95
WARRENSBURG    PTSUNNY   82  72  69 N7        29.92F
OSAGE BEACH    CLOUDY    80  75  84 NE3       29.93S

$$
MOZ051-052-059>065-272300-
...EAST CENTRAL MISSOURI...

CITY           SKY/WX    TMP DP  RH WIND       PRES   REMARKS
ST LOUIS INTL  PTSUNNY   84  75  74 SW7       29.88F HX  92
SPIRIT OF STL  LGT RAIN  83  75  77 W5        29.86F HX  90
ST CHARLES     LGT RAIN  81  77  88 NW6       29.86F FOG

$$
MOZ072>076-082>087-097>100-106>115-272300-
...SOUTH CENTRAL AND SOUTHEAST MISSOURI...

CITY           SKY/WX    TMP DP  RH WIND       PRES   REMARKS
CAPE GIRARDEAU CLOUDY    84  73  69 W6        29.89F HX  90
FARMINGTON     CLOUDY    84  72  67 VRB5      29.91F
POPLAR BLUFF   MOSUNNY   87  73  62 W9        29.90S HX  94
WEST PLAINS    CLOUDY    81  73  76 SW7       29.96F

$$




USA.gov is the U.S. government's official web portal to all federal, state and local government web resources and services.